Time,TemperatureF,DewpointF,PressureIn,WindDirection,WindDirectionDegrees,WindSpeedMPH,WindSpeedGustMPH,Humidity,HourlyPrecipIn,Conditions,Clouds,dailyrainin,SoftwareType,DateUTC
2013-07-16 00:00:00,61.1,58.1,30.22,NNW,348,2.0,3.0,90,0.00,,,0.00,Wunderground v.1.15,2013-07-15 23:00:00,
2013-07-16 00:10:00,61.1,58.1,30.23,NNW,344,2.0,2.0,90,0.00,,,0.00,Wunderground v.1.15,2013-07-15 23:10:00,
2013-07-16 00:15:00,61.1,58.1,30.22,NNW,346,2.0,2.0,90,0.00,,,0.00,Wunderground v.1.15,2013-07-15 23:15:00,
2013-07-16 00:30:00,60.9,57.9,30.22,North,350,1.0,1.0,90,0.00,,,0.00,Wunderground v.1.15,2013-07-15 23:30:00,
2013-07-16 00:35:00,60.9,57.9,30.23,North,350,1.0,2.0,90,0.00,,,0.00,Wunderground v.1.15,2013-07-15 23:35:00,
2013-07-16 00:45:00,60.9,57.9,30.23,North,350,2.0,2.0,90,0.00,,,0.00,Wunderground v.1.15,2013-07-15 23:45:00,
2013-07-16 00:50:00,60.9,57.9,30.22,North,350,2.0,2.0,90,0.00,,,0.00,Wunderground v.1.15,2013-07-15 23:50:00,
2013-07-16 01:00:00,60.9,57.9,30.22,North,350,1.0,2.0,90,0.00,,,0.00,Wunderground v.1.15,2013-07-16 00:00:00,
2013-07-16 01:05:00,60.9,57.9,30.22,North,350,1.0,2.0,90,0.00,,,0.00,Wunderground v.1.15,2013-07-16 00:05:00,
2013-07-16 01:15:00,60.8,57.8,30.22,North,350,0.0,1.0,90,0.00,,,0.00,Wunderground v.1.15,2013-07-16 00:15:00,
2013-07-16 01:25:00,60.8,58.2,30.22,North,350,1.0,1.0,91,0.00,,,0.00,Wunderground v.1.15,2013-07-16 00:25:00,
2013-07-16 01:30:00,60.8,58.2,30.22,North,350,2.0,2.0,91,0.00,,,0.00,Wunderground v.1.15,2013-07-16 00:30:00,
2013-07-16 01:40:00,60.8,58.2,30.22,North,350,1.0,2.0,91,0.00,,,0.00,Wunderground v.1.15,2013-07-16 00:40:00,
2013-07-16 01:50:00,61.2,58.9,30.22,NE,39,4.0,4.0,92,0.00,,,0.00,Wunderground v.1.15,2013-07-16 00:50:00,
2013-07-16 02:00:00,61.3,59.0,30.22,NE,38,4.0,4.0,92,0.00,,,0.00,Wunderground v.1.15,2013-07-16 01:00:00,
2013-07-16 02:15:00,61.1,59.1,30.21,NE,37,3.0,5.0,93,0.00,,,0.00,Wunderground v.1.15,2013-07-16 01:15:00,
2013-07-16 02:20:00,61.1,59.1,30.21,NE,37,4.0,4.0,93,0.00,,,0.00,Wunderground v.1.15,2013-07-16 01:20:00,
2013-07-16 02:30:00,61.0,59.0,30.21,NE,36,3.0,3.0,93,0.00,,,0.00,Wunderground v.1.15,2013-07-16 01:30:00,
2013-07-16 02:40:00,61.0,59.3,30.21,NE,34,3.0,5.0,94,0.00,,,0.00,Wunderground v.1.15,2013-07-16 01:40:00,
2013-07-16 02:50:00,61.0,59.3,30.21,NE,34,3.0,3.0,94,0.00,,,0.00,Wunderground v.1.15,2013-07-16 01:50:00,
2013-07-16 03:00:00,60.8,59.1,30.21,NNE,31,4.0,4.0,94,0.00,,,0.00,Wunderground v.1.15,2013-07-16 02:00:00,
2013-07-16 03:05:00,60.7,59.0,30.21,NNE,31,4.0,4.0,94,0.00,,,0.00,Wunderground v.1.15,2013-07-16 02:05:00,
2013-07-16 03:10:00,60.7,59.0,30.21,NNE,31,3.0,3.0,94,0.00,,,0.00,Wunderground v.1.15,2013-07-16 02:10:00,
2013-07-16 03:20:00,60.6,58.9,30.21,NNE,30,3.0,3.0,94,0.00,,,0.00,Wunderground v.1.15,2013-07-16 02:20:00,
2013-07-16 03:25:00,60.5,58.8,30.21,NNE,30,3.0,5.0,94,0.00,,,0.00,Wunderground v.1.15,2013-07-16 02:25:00,
2013-07-16 03:35:00,60.3,58.6,30.20,NNE,28,3.0,6.0,94,0.00,,,0.00,Wunderground v.1.15,2013-07-16 02:35:00,
2013-07-16 03:40:00,60.2,58.5,30.20,NNE,26,4.0,4.0,94,0.00,,,0.00,Wunderground v.1.15,2013-07-16 02:40:00,
2013-07-16 03:50:00,60.0,58.3,30.20,NNE,33,4.0,4.0,94,0.00,,,0.00,Wunderground v.1.15,2013-07-16 02:50:00,
2013-07-16 04:00:00,59.7,58.0,30.20,NNE,29,4.0,6.0,94,0.00,,,0.00,Wunderground v.1.15,2013-07-16 03:00:00,
2013-07-16 04:05:00,59.5,57.8,30.20,NNE,29,4.0,6.0,94,0.00,,,0.00,Wunderground v.1.15,2013-07-16 03:05:00,
2013-07-16 04:10:00,59.3,57.6,30.20,NNE,29,4.0,4.0,94,0.00,,,0.00,Wunderground v.1.15,2013-07-16 03:10:00,
2013-07-16 04:15:00,59.1,57.4,30.20,NNE,29,3.0,4.0,94,0.00,,,0.00,Wunderground v.1.15,2013-07-16 03:15:00,
2013-07-16 04:20:00,58.9,57.2,30.20,NNE,32,3.0,4.0,94,0.00,,,0.00,Wunderground v.1.15,2013-07-16 03:20:00,
2013-07-16 04:25:00,58.7,57.0,30.20,NE,34,4.0,4.0,94,0.00,,,0.00,Wunderground v.1.15,2013-07-16 03:25:00,
2013-07-16 04:35:00,58.5,56.8,30.19,NE,34,3.0,6.0,94,0.00,,,0.00,Wunderground v.1.15,2013-07-16 03:35:00,
2013-07-16 04:40:00,58.4,56.7,30.19,NE,34,3.0,3.0,94,0.00,,,0.00,Wunderground v.1.15,2013-07-16 03:40:00,
2013-07-16 04:50:00,58.0,56.3,30.19,NE,34,1.0,1.0,94,0.00,,,0.00,Wunderground v.1.15,2013-07-16 03:50:00,
2013-07-16 05:00:00,57.7,56.0,30.20,NE,34,0.0,0.0,94,0.00,,,0.00,Wunderground v.1.15,2013-07-16 04:00:00,
2013-07-16 05:05:00,57.5,55.8,30.19,NE,34,1.0,1.0,94,0.00,,,0.00,Wunderground v.1.15,2013-07-16 04:05:00,
2013-07-16 05:10:00,57.3,55.6,30.19,NE,34,1.0,1.0,94,0.00,,,0.00,Wunderground v.1.15,2013-07-16 04:10:00,
2013-07-16 05:15:00,57.1,55.7,30.20,NE,34,1.0,1.0,95,0.00,,,0.00,Wunderground v.1.15,2013-07-16 04:15:00,
2013-07-16 05:20:00,56.9,55.5,30.19,NE,34,1.0,1.0,95,0.00,,,0.00,Wunderground v.1.15,2013-07-16 04:20:00,
2013-07-16 05:25:00,56.8,55.1,30.19,NE,34,1.0,1.0,94,0.00,,,0.00,Wunderground v.1.15,2013-07-16 04:25:00,
2013-07-16 05:30:00,56.6,55.2,30.19,NE,34,1.0,1.0,95,0.00,,,0.00,Wunderground v.1.15,2013-07-16 04:30:00,
2013-07-16 05:35:00,56.5,55.1,30.19,NE,34,1.0,1.0,95,0.00,,,0.00,Wunderground v.1.15,2013-07-16 04:35:00,
2013-07-16 05:45:00,56.3,54.9,30.20,NE,34,0.0,1.0,95,0.00,,,0.00,Wunderground v.1.15,2013-07-16 04:45:00,
2013-07-16 05:55:00,56.1,54.7,30.20,NE,34,0.0,1.0,95,0.00,,,0.00,Wunderground v.1.15,2013-07-16 04:55:00,
2013-07-16 06:00:00,56.1,55.0,30.20,NE,34,0.0,0.0,96,0.00,,,0.00,Wunderground v.1.15,2013-07-16 05:00:00,
2013-07-16 06:05:00,56.0,54.9,30.20,NE,34,0.0,0.0,96,0.00,,,0.00,Wunderground v.1.15,2013-07-16 05:05:00,
2013-07-16 06:15:00,56.0,54.9,30.20,NE,34,0.0,0.0,96,0.00,,,0.00,Wunderground v.1.15,2013-07-16 05:15:00,
2013-07-16 06:20:00,56.0,54.9,30.20,NE,34,0.0,0.0,96,0.00,,,0.00,Wunderground v.1.15,2013-07-16 05:20:00,
2013-07-16 06:30:00,56.0,54.9,30.20,NE,34,0.0,0.0,96,0.00,,,0.00,Wunderground v.1.15,2013-07-16 05:30:00,
2013-07-16 06:35:00,56.1,55.0,30.20,NE,34,0.0,0.0,96,0.00,,,0.00,Wunderground v.1.15,2013-07-16 05:35:00,
2013-07-16 06:45:00,56.3,55.5,30.20,NE,34,0.0,0.0,97,0.00,,,0.00,Wunderground v.1.15,2013-07-16 05:45:00,
2013-07-16 06:50:00,56.5,55.7,30.21,NE,34,0.0,0.0,97,0.00,,,0.00,Wunderground v.1.15,2013-07-16 05:50:00,
2013-07-16 06:55:00,56.7,55.9,30.21,NE,34,0.0,0.0,97,0.00,,,0.00,Wunderground v.1.15,2013-07-16 05:55:00,
2013-07-16 07:00:00,57.0,56.2,30.21,NE,34,0.0,0.0,97,0.00,,,0.00,Wunderground v.1.15,2013-07-16 06:00:00,
2013-07-16 07:10:00,57.4,56.6,30.20,NE,34,0.0,0.0,97,0.00,,,0.00,Wunderground v.1.15,2013-07-16 06:10:00,
2013-07-16 07:20:00,57.7,56.9,30.21,NE,34,1.0,2.0,97,0.00,,,0.00,Wunderground v.1.15,2013-07-16 06:20:00,
2013-07-16 07:30:00,57.9,57.1,30.21,NE,34,1.0,2.0,97,0.00,,,0.00,Wunderground v.1.15,2013-07-16 06:30:00,
2013-07-16 07:35:00,58.2,57.4,30.21,NE,34,2.0,2.0,97,0.00,,,0.00,Wunderground v.1.15,2013-07-16 06:35:00,
2013-07-16 07:40:00,58.4,57.6,30.21,NE,34,2.0,2.0,97,0.00,,,0.00,Wunderground v.1.15,2013-07-16 06:40:00,
2013-07-16 07:45:00,58.6,57.8,30.21,NE,34,1.0,2.0,97,0.00,,,0.00,Wunderground v.1.15,2013-07-16 06:45:00,
2013-07-16 07:50:00,58.5,57.4,30.21,NE,34,1.0,1.0,96,0.00,,,0.00,Wunderground v.1.15,2013-07-16 06:50:00,
2013-07-16 07:55:00,58.6,57.5,30.21,NE,34,1.0,1.0,96,0.00,,,0.00,Wunderground v.1.15,2013-07-16 06:55:00,
2013-07-16 08:00:00,58.8,57.7,30.21,NE,34,1.0,1.0,96,0.00,,,0.00,Wunderground v.1.15,2013-07-16 07:00:00,
2013-07-16 08:05:00,59.0,57.9,30.21,NE,34,1.0,2.0,96,0.00,,,0.00,Wunderground v.1.15,2013-07-16 07:05:00,
2013-07-16 08:10:00,59.2,58.1,30.21,NE,34,1.0,1.0,96,0.00,,,0.00,Wunderground v.1.15,2013-07-16 07:10:00,
2013-07-16 08:15:00,59.3,57.9,30.21,NE,34,1.0,1.0,95,0.00,,,0.00,Wunderground v.1.15,2013-07-16 07:15:00,
2013-07-16 08:25:00,59.4,58.0,30.21,NE,34,1.0,1.0,95,0.00,,,0.00,Wunderground v.1.15,2013-07-16 07:25:00,
2013-07-16 08:30:00,59.5,58.1,30.22,NE,34,0.0,0.0,95,0.00,,,0.00,Wunderground v.1.15,2013-07-16 07:30:00,
2013-07-16 08:35:00,59.5,58.1,30.22,NE,34,1.0,1.0,95,0.00,,,0.00,Wunderground v.1.15,2013-07-16 07:35:00,
2013-07-16 08:40:00,59.6,57.9,30.22,NE,34,1.0,1.0,94,0.00,,,0.00,Wunderground v.1.15,2013-07-16 07:40:00,
2013-07-16 08:50:00,59.8,58.1,30.22,NE,34,1.0,1.0,94,0.00,,,0.00,Wunderground v.1.15,2013-07-16 07:50:00,
2013-07-16 08:55:00,59.8,58.1,30.22,NE,34,1.0,1.0,94,0.00,,,0.00,Wunderground v.1.15,2013-07-16 07:55:00,
2013-07-16 09:05:00,59.9,57.9,30.22,NE,34,1.0,1.0,93,0.00,,,0.00,Wunderground v.1.15,2013-07-16 08:05:00,
2013-07-16 09:10:00,60.0,58.0,30.22,NE,34,1.0,1.0,93,0.00,,,0.00,Wunderground v.1.15,2013-07-16 08:10:00,
2013-07-16 09:15:00,60.1,58.1,30.22,NE,34,1.0,1.0,93,0.00,,,0.00,Wunderground v.1.15,2013-07-16 08:15:00,
2013-07-16 09:20:00,60.3,58.3,30.22,NE,34,1.0,1.0,93,0.00,,,0.00,Wunderground v.1.15,2013-07-16 08:20:00,
2013-07-16 09:25:00,60.4,58.4,30.22,NE,34,1.0,1.0,93,0.00,,,0.00,Wunderground v.1.15,2013-07-16 08:25:00,
2013-07-16 09:30:00,60.5,58.5,30.22,NE,34,1.0,1.0,93,0.00,,,0.00,Wunderground v.1.15,2013-07-16 08:30:00,
2013-07-16 09:40:00,60.8,58.5,30.22,NE,34,1.0,2.0,92,0.00,,,0.00,Wunderground v.1.15,2013-07-16 08:40:00,
2013-07-16 09:45:00,60.8,58.5,30.22,NE,34,1.0,2.0,92,0.00,,,0.00,Wunderground v.1.15,2013-07-16 08:45:00,
2013-07-16 09:50:00,60.9,58.6,30.22,NE,34,1.0,1.0,92,0.00,,,0.00,Wunderground v.1.15,2013-07-16 08:50:00,
2013-07-16 09:55:00,60.8,58.5,30.22,NE,34,1.0,1.0,92,0.00,,,0.00,Wunderground v.1.15,2013-07-16 08:55:00,
2013-07-16 10:05:00,61.0,58.7,30.22,NE,34,1.0,5.0,92,0.00,,,0.00,Wunderground v.1.15,2013-07-16 09:05:00,
2013-07-16 10:10:00,61.1,58.8,30.22,NE,34,1.0,3.0,92,0.00,,,0.00,Wunderground v.1.15,2013-07-16 09:10:00,
2013-07-16 10:15:00,61.3,59.0,30.22,NE,34,2.0,3.0,92,0.00,,,0.00,Wunderground v.1.15,2013-07-16 09:15:00,
2013-07-16 10:20:00,61.4,59.1,30.22,NNE,23,1.0,4.0,92,0.00,,,0.00,Wunderground v.1.15,2013-07-16 09:20:00,
2013-07-16 10:30:00,62.1,59.7,30.22,NNE,22,2.0,3.0,92,0.00,,,0.00,Wunderground v.1.15,2013-07-16 09:30:00,
2013-07-16 10:40:00,62.5,59.5,30.22,NNE,20,2.0,2.0,90,0.00,,,0.00,Wunderground v.1.15,2013-07-16 09:40:00,
2013-07-16 10:45:00,62.7,59.7,30.22,NNE,20,1.0,2.0,90,0.00,,,0.00,Wunderground v.1.15,2013-07-16 09:45:00,
2013-07-16 10:50:00,63.0,60.0,30.22,NNE,20,1.0,4.0,90,0.00,,,0.00,Wunderground v.1.15,2013-07-16 09:50:00,
2013-07-16 11:00:00,63.4,60.1,30.22,NNE,17,1.0,1.0,89,0.00,,,0.00,Wunderground v.1.15,2013-07-16 10:00:00,
2013-07-16 11:10:00,63.9,60.3,30.22,North,11,2.0,2.0,88,0.00,,,0.00,Wunderground v.1.15,2013-07-16 10:10:00,
2013-07-16 11:20:00,64.5,60.2,30.22,North,11,2.0,2.0,86,0.00,,,0.00,Wunderground v.1.15,2013-07-16 10:20:00,
2013-07-16 11:25:00,64.8,60.2,30.22,North,10,1.0,2.0,85,0.00,,,0.00,Wunderground v.1.15,2013-07-16 10:25:00,
2013-07-16 11:30:00,64.8,59.9,30.22,North,10,1.0,1.0,84,0.00,,,0.00,Wunderground v.1.15,2013-07-16 10:30:00,
2013-07-16 11:35:00,64.9,60.3,30.22,North,10,2.0,3.0,85,0.00,,,0.00,Wunderground v.1.15,2013-07-16 10:35:00,
2013-07-16 11:45:00,65.2,59.9,30.22,North,11,2.0,4.0,83,0.00,,,0.00,Wunderground v.1.15,2013-07-16 10:45:00,
2013-07-16 11:55:00,65.8,60.8,30.22,North,5,2.0,3.0,84,0.00,,,0.00,Wunderground v.1.15,2013-07-16 10:55:00,
2013-07-16 12:05:00,66.2,60.9,30.22,North,5,2.0,2.0,83,0.00,,,0.00,Wunderground v.1.15,2013-07-16 11:05:00,
2013-07-16 12:10:00,66.3,61.0,30.22,North,9,2.0,2.0,83,0.00,,,0.00,Wunderground v.1.15,2013-07-16 11:10:00,
2013-07-16 12:15:00,66.4,60.7,30.22,North,9,2.0,4.0,82,0.00,,,0.00,Wunderground v.1.15,2013-07-16 11:15:00,
2013-07-16 12:20:00,66.4,61.1,30.22,North,9,2.0,2.0,83,0.00,,,0.00,Wunderground v.1.15,2013-07-16 11:20:00,
2013-07-16 12:30:00,66.2,60.9,30.22,North,5,2.0,4.0,83,0.00,,,0.00,Wunderground v.1.15,2013-07-16 11:30:00,
2013-07-16 12:40:00,66.0,60.7,30.22,North,350,2.0,2.0,83,0.00,,,0.00,Wunderground v.1.15,2013-07-16 11:40:00,
2013-07-16 12:45:00,66.2,60.9,30.22,North,355,2.0,2.0,83,0.00,,,0.00,Wunderground v.1.15,2013-07-16 11:45:00,
2013-07-16 12:50:00,66.4,61.1,30.23,North,355,2.0,2.0,83,0.00,,,0.00,Wunderground v.1.15,2013-07-16 11:50:00,
2013-07-16 12:55:00,66.7,61.4,30.23,North,355,1.0,2.0,83,0.00,,,0.00,Wunderground v.1.15,2013-07-16 11:55:00,
2013-07-16 13:05:00,66.7,61.0,30.23,North,355,2.0,2.0,82,0.00,,,0.00,Wunderground v.1.15,2013-07-16 12:05:00,
2013-07-16 13:10:00,66.7,61.4,30.23,North,355,2.0,2.0,83,0.00,,,0.00,Wunderground v.1.15,2013-07-16 12:10:00,
2013-07-16 13:15:00,66.8,61.5,30.23,NNW,347,2.0,2.0,83,0.00,,,0.00,Wunderground v.1.15,2013-07-16 12:15:00,
2013-07-16 13:20:00,67.0,62.0,30.23,NNW,345,2.0,2.0,84,0.00,,,0.00,Wunderground v.1.15,2013-07-16 12:20:00,
2013-07-16 13:30:00,67.5,62.5,30.23,NNW,343,2.0,2.0,84,0.00,,,0.00,Wunderground v.1.15,2013-07-16 12:30:00,
2013-07-16 13:35:00,67.5,61.8,30.23,NNW,347,2.0,2.0,82,0.00,,,0.00,Wunderground v.1.15,2013-07-16 12:35:00,
2013-07-16 13:40:00,67.5,61.8,30.23,NNW,340,2.0,2.0,82,0.00,,,0.00,Wunderground v.1.15,2013-07-16 12:40:00,
2013-07-16 13:50:00,67.5,62.2,30.23,NNW,336,2.0,2.0,83,0.00,,,0.00,Wunderground v.1.15,2013-07-16 12:50:00,
2013-07-16 14:00:00,67.8,62.4,30.23,NNW,333,2.0,2.0,83,0.00,,,0.00,Wunderground v.1.15,2013-07-16 13:00:00,
2013-07-16 14:05:00,68.2,62.5,30.23,NNW,336,2.0,3.0,82,0.00,,,0.00,Wunderground v.1.15,2013-07-16 13:05:00,
2013-07-16 14:10:00,68.6,62.9,30.23,North,349,3.0,3.0,82,0.00,,,0.00,Wunderground v.1.15,2013-07-16 13:10:00,
2013-07-16 14:15:00,68.9,62.5,30.22,North,355,3.0,3.0,80,0.00,,,0.00,Wunderground v.1.15,2013-07-16 13:15:00,
2013-07-16 14:20:00,69.0,62.6,30.22,North,360,3.0,5.0,80,0.00,,,0.00,Wunderground v.1.15,2013-07-16 13:20:00,
2013-07-16 14:25:00,69.0,62.6,30.22,North,9,3.0,5.0,80,0.00,,,0.00,Wunderground v.1.15,2013-07-16 13:25:00,
2013-07-16 14:35:00,68.8,62.4,30.22,NNW,340,3.0,3.0,80,0.00,,,0.00,Wunderground v.1.15,2013-07-16 13:35:00,
2013-07-16 14:45:00,68.8,62.4,30.22,NNW,335,2.0,2.0,80,0.00,,,0.00,Wunderground v.1.15,2013-07-16 13:45:00,
2013-07-16 14:55:00,69.3,62.1,30.22,NNW,331,2.0,3.0,78,0.00,,,0.00,Wunderground v.1.15,2013-07-16 13:55:00,
2013-07-16 15:00:00,69.4,62.6,30.23,North,355,2.0,4.0,79,0.00,,,0.00,Wunderground v.1.15,2013-07-16 14:00:00,
2013-07-16 15:05:00,69.3,62.1,30.23,North,351,3.0,5.0,78,0.00,,,0.00,Wunderground v.1.15,2013-07-16 14:05:00,
2013-07-16 15:10:00,69.4,62.2,30.23,NNE,22,3.0,6.0,78,0.00,,,0.00,Wunderground v.1.15,2013-07-16 14:10:00,
2013-07-16 15:20:00,69.3,61.8,30.23,North,355,3.0,3.0,77,0.00,,,0.00,Wunderground v.1.15,2013-07-16 14:20:00,
2013-07-16 15:35:00,69.0,61.1,30.23,North,355,2.0,3.0,76,0.00,,,0.00,Wunderground v.1.15,2013-07-16 14:35:00,
2013-07-16 15:40:00,68.9,61.4,30.23,North,355,2.0,2.0,77,0.00,,,0.00,Wunderground v.1.15,2013-07-16 14:40:00,
2013-07-16 15:50:00,68.9,61.0,30.22,North,350,2.0,3.0,76,0.00,,,0.00,Wunderground v.1.15,2013-07-16 14:50:00,
2013-07-16 15:55:00,68.9,61.4,30.22,NNW,329,2.0,5.0,77,0.00,,,0.00,Wunderground v.1.15,2013-07-16 14:55:00,
2013-07-16 16:00:00,68.8,60.9,30.22,NNW,329,2.0,3.0,76,0.00,,,0.00,Wunderground v.1.15,2013-07-16 15:00:00,
2013-07-16 16:10:00,68.6,61.5,30.22,NNW,327,2.0,3.0,78,0.00,,,0.00,Wunderground v.1.15,2013-07-16 15:10:00,
2013-07-16 16:20:00,68.6,61.5,30.22,NW,318,2.0,2.0,78,0.00,,,0.00,Wunderground v.1.15,2013-07-16 15:20:00,
2013-07-16 16:25:00,68.6,61.5,30.22,NW,317,3.0,3.0,78,0.00,,,0.00,Wunderground v.1.15,2013-07-16 15:25:00,
2013-07-16 16:30:00,68.5,61.7,30.22,NW,313,2.0,2.0,79,0.00,,,0.00,Wunderground v.1.15,2013-07-16 15:30:00,
2013-07-16 16:35:00,68.7,61.9,30.22,NW,322,2.0,4.0,79,0.00,,,0.00,Wunderground v.1.15,2013-07-16 15:35:00,
2013-07-16 16:45:00,68.7,61.6,30.22,NW,321,1.0,2.0,78,0.00,,,0.00,Wunderground v.1.15,2013-07-16 15:45:00,
2013-07-16 16:55:00,68.2,61.1,30.22,NW,323,1.0,2.0,78,0.00,,,0.00,Wunderground v.1.15,2013-07-16 15:55:00,
2013-07-16 17:05:00,68.0,60.9,30.22,NW,324,1.0,2.0,78,0.00,,,0.00,Wunderground v.1.15,2013-07-16 16:05:00,
2013-07-16 17:10:00,67.8,60.7,30.22,NW,325,2.0,3.0,78,0.00,,,0.00,Wunderground v.1.15,2013-07-16 16:10:00,
2013-07-16 17:15:00,67.7,60.6,30.21,NNW,336,2.0,3.0,78,0.00,,,0.00,Wunderground v.1.15,2013-07-16 16:15:00,
2013-07-16 17:20:00,67.7,60.6,30.21,NNW,329,2.0,3.0,78,0.00,,,0.00,Wunderground v.1.15,2013-07-16 16:20:00,
2013-07-16 17:25:00,67.5,60.8,30.22,NNW,347,2.0,3.0,79,0.00,,,0.00,Wunderground v.1.15,2013-07-16 16:25:00,
2013-07-16 17:30:00,67.5,60.8,30.21,NNW,334,2.0,2.0,79,0.00,,,0.00,Wunderground v.1.15,2013-07-16 16:30:00,
2013-07-16 17:35:00,67.3,60.6,30.21,NNW,346,2.0,4.0,79,0.00,,,0.00,Wunderground v.1.15,2013-07-16 16:35:00,
2013-07-16 17:45:00,67.2,60.8,30.22,NNW,336,2.0,5.0,80,0.00,,,0.00,Wunderground v.1.15,2013-07-16 16:45:00,
2013-07-16 17:55:00,67.0,61.0,30.22,NW,325,2.0,5.0,81,0.00,,,0.00,Wunderground v.1.15,2013-07-16 16:55:00,
2013-07-16 18:00:00,66.9,60.9,30.21,NW,325,2.0,2.0,81,0.00,,,0.00,Wunderground v.1.15,2013-07-16 17:00:00,
2013-07-16 18:10:00,67.0,61.3,30.21,NW,325,1.0,1.0,82,0.00,,,0.00,Wunderground v.1.15,2013-07-16 17:10:00,
2013-07-16 18:15:00,66.9,61.2,30.21,NW,325,1.0,2.0,82,0.00,,,0.00,Wunderground v.1.15,2013-07-16 17:15:00,
2013-07-16 18:20:00,66.8,61.1,30.21,NW,324,1.0,1.0,82,0.00,,,0.00,Wunderground v.1.15,2013-07-16 17:20:00,
2013-07-16 18:25:00,66.8,60.8,30.21,NW,325,1.0,3.0,81,0.00,,,0.00,Wunderground v.1.15,2013-07-16 17:25:00,
2013-07-16 18:30:00,66.6,60.9,30.21,NW,325,2.0,2.0,82,0.00,,,0.00,Wunderground v.1.15,2013-07-16 17:30:00,
2013-07-16 18:35:00,66.5,60.5,30.21,NW,320,2.0,2.0,81,0.00,,,0.00,Wunderground v.1.15,2013-07-16 17:35:00,
2013-07-16 18:40:00,66.3,60.6,30.21,NW,317,2.0,2.0,82,0.00,,,0.00,Wunderground v.1.15,2013-07-16 17:40:00,
2013-07-16 18:50:00,66.2,60.5,30.21,NW,317,1.0,1.0,82,0.00,,,0.00,Wunderground v.1.15,2013-07-16 17:50:00,
2013-07-16 18:55:00,66.1,60.4,30.21,NW,317,1.0,1.0,82,0.00,,,0.00,Wunderground v.1.15,2013-07-16 17:55:00,
2013-07-16 19:00:00,66.0,60.3,30.21,NW,316,2.0,3.0,82,0.00,,,0.00,Wunderground v.1.15,2013-07-16 18:00:00,
2013-07-16 19:05:00,65.8,60.2,30.21,NW,317,2.0,3.0,82,0.00,,,0.00,Wunderground v.1.15,2013-07-16 18:05:00,
2013-07-16 19:10:00,65.6,60.0,30.21,NW,311,2.0,2.0,82,0.00,,,0.00,Wunderground v.1.15,2013-07-16 18:10:00,
2013-07-16 19:20:00,65.2,59.9,30.21,NW,319,2.0,2.0,83,0.00,,,0.00,Wunderground v.1.15,2013-07-16 18:20:00,
2013-07-16 19:30:00,64.8,59.5,30.22,NW,319,1.0,1.0,83,0.00,,,0.00,Wunderground v.1.15,2013-07-16 18:30:00,
2013-07-16 19:40:00,64.4,59.5,30.21,NW,315,2.0,2.0,84,0.00,,,0.00,Wunderground v.1.15,2013-07-16 18:40:00,
2013-07-16 19:45:00,64.3,59.4,30.21,NW,315,1.0,2.0,84,0.00,,,0.00,Wunderground v.1.15,2013-07-16 18:45:00,
2013-07-16 19:55:00,64.3,59.4,30.21,NW,316,1.0,2.0,84,0.00,,,0.00,Wunderground v.1.15,2013-07-16 18:55:00,
2013-07-16 20:05:00,64.1,59.2,30.21,NW,317,1.0,3.0,84,0.00,,,0.00,Wunderground v.1.15,2013-07-16 19:05:00,
2013-07-16 20:10:00,64.0,59.4,30.21,NW,317,1.0,2.0,85,0.00,,,0.00,Wunderground v.1.15,2013-07-16 19:10:00,
2013-07-16 20:15:00,63.9,59.3,30.22,NW,321,1.0,5.0,85,0.00,,,0.00,Wunderground v.1.15,2013-07-16 19:15:00,
2013-07-16 20:20:00,63.8,59.2,30.22,NW,323,2.0,4.0,85,0.00,,,0.00,Wunderground v.1.15,2013-07-16 19:20:00,
2013-07-16 20:25:00,63.6,59.0,30.21,NNW,329,3.0,4.0,85,0.00,,,0.00,Wunderground v.1.15,2013-07-16 19:25:00,
2013-07-16 20:35:00,63.4,59.1,30.22,NNE,17,3.0,3.0,86,0.00,,,0.00,Wunderground v.1.15,2013-07-16 19:35:00,
2013-07-16 20:40:00,63.2,59.3,30.22,NNE,31,4.0,5.0,87,0.00,,,0.00,Wunderground v.1.15,2013-07-16 19:40:00,
2013-07-16 20:45:00,62.9,59.0,30.22,NE,40,4.0,5.0,87,0.00,,,0.00,Wunderground v.1.15,2013-07-16 19:45:00,
2013-07-16 20:55:00,62.5,58.9,30.22,NNE,33,3.0,6.0,88,0.00,,,0.00,Wunderground v.1.15,2013-07-16 19:55:00,
2013-07-16 21:00:00,62.3,58.7,30.22,NNE,33,3.0,3.0,88,0.00,,,0.00,Wunderground v.1.15,2013-07-16 20:00:00,
2013-07-16 21:05:00,62.0,58.4,30.22,NE,40,3.0,3.0,88,0.00,,,0.00,Wunderground v.1.15,2013-07-16 20:05:00,
2013-07-16 21:15:00,61.6,58.3,30.22,NE,40,2.0,3.0,89,0.00,,,0.00,Wunderground v.1.15,2013-07-16 20:15:00,
2013-07-16 21:20:00,61.4,58.1,30.22,NE,40,1.0,2.0,89,0.00,,,0.00,Wunderground v.1.15,2013-07-16 20:20:00,
2013-07-16 21:25:00,61.1,57.8,30.23,NE,40,1.0,2.0,89,0.00,,,0.00,Wunderground v.1.15,2013-07-16 20:25:00,
2013-07-16 21:30:00,60.9,57.6,30.23,NE,40,1.0,1.0,89,0.00,,,0.00,Wunderground v.1.15,2013-07-16 20:30:00,
2013-07-16 21:35:00,60.7,57.4,30.23,NE,40,1.0,2.0,89,0.00,,,0.00,Wunderground v.1.15,2013-07-16 20:35:00,
2013-07-16 21:40:00,60.4,57.1,30.23,NE,40,1.0,1.0,89,0.00,,,0.00,Wunderground v.1.15,2013-07-16 20:40:00,
2013-07-16 21:50:00,59.8,56.6,30.23,NE,40,0.0,0.0,89,0.00,,,0.00,Wunderground v.1.15,2013-07-16 20:50:00,
2013-07-16 21:55:00,59.6,56.7,30.23,NE,40,0.0,0.0,90,0.00,,,0.00,Wunderground v.1.15,2013-07-16 20:55:00,
2013-07-16 22:05:00,59.2,56.6,30.23,NE,40,0.0,0.0,91,0.00,,,0.00,Wunderground v.1.15,2013-07-16 21:05:00,
2013-07-16 22:15:00,58.9,56.6,30.24,NE,40,0.0,0.0,92,0.00,,,0.00,Wunderground v.1.15,2013-07-16 21:15:00,
2013-07-16 22:20:00,58.8,56.5,30.23,NE,40,0.0,0.0,92,0.00,,,0.00,Wunderground v.1.15,2013-07-16 21:20:00,
2013-07-16 22:25:00,58.7,56.4,30.24,NE,40,0.0,0.0,92,0.00,,,0.00,Wunderground v.1.15,2013-07-16 21:25:00,
2013-07-16 22:30:00,58.5,56.2,30.24,NE,40,0.0,0.0,92,0.00,,,0.00,Wunderground v.1.15,2013-07-16 21:30:00,
2013-07-16 22:40:00,58.4,56.4,30.23,NE,40,0.0,0.0,93,0.00,,,0.00,Wunderground v.1.15,2013-07-16 21:40:00,
2013-07-16 22:45:00,58.3,56.3,30.23,NE,40,0.0,0.0,93,0.00,,,0.00,Wunderground v.1.15,2013-07-16 21:45:00,
2013-07-16 22:55:00,58.2,56.2,30.24,NE,40,0.0,0.0,93,0.00,,,0.00,Wunderground v.1.15,2013-07-16 21:55:00,
2013-07-16 23:00:00,58.1,56.4,30.23,NE,40,0.0,0.0,94,0.00,,,0.00,Wunderground v.1.15,2013-07-16 22:00:00,
2013-07-16 23:10:00,58.0,56.3,30.23,NE,40,0.0,1.0,94,0.00,,,0.00,Wunderground v.1.15,2013-07-16 22:10:00,
2013-07-16 23:15:00,58.0,56.3,30.24,NE,40,0.0,1.0,94,0.00,,,0.00,Wunderground v.1.15,2013-07-16 22:15:00,
2013-07-16 23:25:00,57.9,56.2,30.24,NE,40,0.0,1.0,94,0.00,,,0.00,Wunderground v.1.15,2013-07-16 22:25:00,
2013-07-16 23:30:00,57.9,56.5,30.24,NE,40,1.0,1.0,95,0.00,,,0.00,Wunderground v.1.15,2013-07-16 22:30:00,
2013-07-16 23:35:00,57.9,56.5,30.24,NE,40,0.0,1.0,95,0.00,,,0.00,Wunderground v.1.15,2013-07-16 22:35:00,
2013-07-16 23:45:00,57.9,56.5,30.24,NE,40,1.0,1.0,95,0.00,,,0.00,Wunderground v.1.15,2013-07-16 22:45:00,
2013-07-16 23:55:00,57.8,56.4,30.23,NE,40,0.0,1.0,95,0.00,,,0.00,Wunderground v.1.15,2013-07-16 22:55:00,